Regional Weather Roundup
Issued by NWS

Home | Current Version | Previous Version | Text Only | Print | Product List | Glossary Off
Versions: 1 2 3 4 5 6 7 8 9 10 11 12 13 14 15 16 17 18 19 20 21 22 23 24 25 26 27

000
ASUS45 KBOU 191810
RWRCO

WEATHER ROUNDUP FOR COLORADO
NATIONAL WEATHER SERVICE DENVER/BOULDER CO
1200 PM MDT SAT MAY 19 2018

NOTE: "FAIR" INDICATES FEW OR NO CLOUDS BELOW 12000 FEET WITH NO
SIGNIFICANT WEATHER AND/OR OBSTRUCTIONS TO VISIBILITY.

COZ001>005-013-030-031-191900-
...NORTHWEST COLORADO...

CITY           SKY/WX    TMP DP  RH WIND       PRES   REMARKS
CRAIG          FAIR      59  44  57 W7        30.07F
HAYDEN         FAIR      55  40  56 W5        30.09F
MEEKER         FAIR      61  41  47 SW8       30.06F
RANGELY        FAIR      66  40  37 E7        30.02F
RABBIT EARS PA FAIR      41  34  75 E8        30.23S
STEAMBOAT SPGS FAIR      56  39  52 CALM      30.07F
WALDEN         CLOUDY    50  34  53 NE8       30.16S
$$

COZ006>008-011-191900-
...WEST CENTRAL VALLEYS...

CITY           SKY/WX    TMP DP  RH WIND       PRES   REMARKS
GRAND JUNCTION FAIR      71  37  28 W8        29.95S
MONTROSE       FAIR      69  26  20 NW8       29.99S
EAGLE          NOT AVBL
RIFLE          FAIR      67  38  34 CALM      29.98F
DELTA          FAIR      75  27  17 W3        29.95F
NUCLA          NOT AVBL
$$

COZ017>023-064>068-191900-
...SOUTHWEST COLORADO...

CITY           SKY/WX    TMP DP  RH WIND       PRES   REMARKS
DURANGO        FAIR      70  24  17 W6G22     30.03F
CORTEZ         FAIR      71  26  18 VRB7      30.01F
PAGOSA SPRINGS FAIR      66  11  12 S13G23    30.09S
TELLURIDE      FAIR      59  21  23 W12G18    30.15S
WOLF CREEK PAS FAIR      45  18  33 S21G30    30.33S
$$

COZ009-010-012-014-032>034-037-058>063-191900-
...CENTRAL COLORADO...

CITY           SKY/WX    TMP DP  RH WIND       PRES   REMARKS
ASPEN          FAIR      64  11  12 N9        30.03S
BUENA VISTA    CLOUDY    57  31  37 SE3       30.08F
COPPER MTN     CLOUDY    45  23  42 E9        30.26S
BERTHOUD PASS  HAZE      30  19  64 S7        30.30R VSB 1/4 WCI  23
COTTONWOOD PAS CLOUDY    54  37  54 SE5       30.18R
GUNNISON       FAIR      63  21  20 VRB6      30.05F
GRANBY         FAIR      51  35  54 CALM      30.13S
KREMMLING      FAIR      61  37  41 E5        30.11S
LEADVILLE      PTSUNNY   50  23  34 N13       30.14S
MONARCH PASS   FAIR      45  16  31 MISG      30.37S
SALIDA         FAIR      64  36  35 E14       30.13F
SUNLIGHT       PTSUNNY   37  30  75 NW7       30.26R
WILKERSON PASS CLOUDY    37  34  87 SE3       30.28S
$$

COZ069>075-191900-
...SAN LUIS VALLEY/SANGRE DE CRISTO MOUNTAINS...

CITY           SKY/WX    TMP DP  RH WIND       PRES   REMARKS
ALAMOSA        FAIR      66  23  19 S12G18    30.05F
DEL NORTE      FAIR      63  29  27 E12G17    30.08F
LA VETA PASS   PTSUNNY   50  39  66 NE6       30.33R
SAGUACHE       NOT AVBL
$$

COZ035-036-038>040-191900-
...NORTHERN COLORADO FRONT RANGE...

CITY           SKY/WX    TMP DP  RH WIND       PRES   REMARKS
DENVER INTL AP CLOUDY    47  40  76 N17       30.14R
AURORA         CLOUDY    46  44  93 N13       30.15R
FRONT RANGE AP CLOUDY    46  45  93 N14G24    30.15R
ERIE MUNI ARPT CLOUDY    48  41  76 N13G22    30.21R
BOULDER MUN AP LGT RAIN  46  43  87 NE10G17   30.16R
CENTENNIAL     CLOUDY    46  43  89 N15       30.14R FOG
BROOMFIELD     CLOUDY    46  43  87 N8        30.14S
FORT COLLINS   LGT RAIN  48  43  82 N20G25    30.16R
LONGMONT       CLOUDY    52  42  68 NE18G26   30.17R
$$

COZ041-046-047-076>085-087-088-191900-
...PIKES PEAK/PALMER DIVIDE AND SOUTHERN FOOTHILLS...

CITY           SKY/WX    TMP DP  RH WIND       PRES   REMARKS
COLO. SPRINGS  CLOUDY    56  43  61 N8        30.10R
A. F. ACADEMY  CLOUDY    54  42  65 N18G24    30.11R
SCHRIEVER AFB  NOT AVBL
CHEYENNE MTN   CLOUDY    50  41  73 NE3       30.08R
ELLICOTT         N/A    N/A N/A N/A N18       30.09R
FALCON         CLOUDY    54  42  63 N16       30.13R
FORT CARSON    CLOUDY    56  42  61 CALM      30.08R
LIMON          CLOUDY    51  44  77 N23G31    30.10R
MONUMENT HILL  DRIZZLE   43  41  93 N16       30.16R
CANON CITY     CLOUDY    61  48  63 E8G16     30.06S
WALSENBURG     MOCLDY    64  43  45 SE12      30.07S
TRINIDAD       FAIR      62  45  53 VRB7      30.07F
$$

COZ042>045-048>051-090-091-191900-
...NORTHEAST COLORADO...

CITY           SKY/WX    TMP DP  RH WIND       PRES   REMARKS
GREELEY ARPT   RAIN      46  43  89 N15       30.15R
AKRON          RAIN      44  43  96 N21       30.08R FOG
BURLINGTON     CLOUDY    57  47  69 NW35G47   29.99S
WRAY           LGT RAIN  46  46 100 N23G31    30.00R
YUMA           LGT RAIN  45  45 100 N17G25    30.04R
STERLING       RAIN      45  43  93 N15G25    30.08R
HOLYOKE        LGT RAIN  46  45  93 N23       30.03R
FORT MORGAN    RAIN      46  43  90 N20       30.13R
$$

COZ086-089-092>099-191900-
...SOUTHEAST COLORADO...

CITY           SKY/WX    TMP DP  RH WIND       PRES   REMARKS
PUEBLO         CLOUDY    66  46  48 E6        30.04S
LA JUNTA       FAIR      64  48  56 N7        30.04S
LAMAR          FAIR      65  50  58 NW8       30.01R
SPRINGFIELD      N/A     66  50  56 N13G20    30.01F
$$




USA.gov is the U.S. government's official web portal to all federal, state and local government web resources and services.